{"data":{"norad_id":49444,"epoch":"2026-05-24T14:13:31.408032Z","epoch_age_seconds":100386,"freshness":"FRESH","line1":"1 49444U 21104AN  26144.59272463 -.00000293  00000+0 -29627-6 0  9995","line2":"2 49444  53.2146 228.3896 0001270  87.3735 272.7403 15.08837265250376","mean_motion":15.08837265,"eccentricity":0.000127,"inclination_deg":53.2146,"raan_deg":228.3896,"arg_perigee_deg":87.3735,"mean_anomaly_deg":272.7403,"bstar":-2.9627e-7,"rev_number":25037,"period_min":95.437727673037,"perigee_km":538.87317690648,"apogee_km":540.63032064867,"semimajor_km":6917.8887487776,"source":"CELESTRAK","updated_at":"2026-05-25T13:38:16.802363Z"}}